Location: Austin
(30.3000°N, 97.7500°W)
Time: 11:28:57
(UTC-05:00)

Longmarch 3A Rocket - Pass Details

Date: 05 September 2024
Orbit: 251 x 19599 km, 27.2° (Epoch: 10 September)

Event Time Altitude Azimuth Distance (km) Brightness Sun altitude
Rises 20:51:06 0° 217° (SW) 2,706 5.6 -14.1°
Reaches altitude 10° 20:52:37 10° 206° (SSW) 2,202 5.0 -14.5°
Maximum altitude 20:57:11 36° 137° (SE) 2,105 4.3 -15.4°
Drops below altitude 10° 21:15:40 10° 80° (E) 8,729 7.4 -19.2°
Sets 21:33:35 0° 76° (ENE) 13,912 8.5 -22.8°
